This is the latest recevied weather packets stored in our database for station/object N2WH. If no packets are shown the sender has not sent any weather packets the latest 10 day(s).
| Time | Temp. | Humidity | Pressure | Rain* | Wind** | Luminosity | Snow |
|---|---|---|---|---|---|---|---|
| 1777872483 | 8.89° C | 56% | 1013.8 hPa | 0 mm | - | 0 W/m² | - |
| 1777872181 | 8.33° C | 56% | 1013.9 hPa | 0 mm | - | 0 W/m² | - |
| 1777871877 | 8.89° C | 56% | 1013.7 hPa | 0 mm | - | 0 W/m² | - |
| 1777871574 | 8.33° C | 56% | 1013.7 hPa | 0 mm | - | 0 W/m² | - |
| 1777871270 | 8.89° C | 56% | 1013.7 hPa | 0 mm | - | 0 W/m² | - |
| 1777870968 | 8.89° C | 56% | 1013.8 hPa | 0 mm | - | 0 W/m² | - |
| 1777870665 | 8.89° C | 56% | 1013.9 hPa | 0 mm | - | 0 W/m² | - |
| 1777870359 | 8.89° C | 56% | 1013.7 hPa | 0 mm | - | 0 W/m² | - |
| 1777870057 | 8.89° C | 56% | 1013.7 hPa | 0 mm | - | 0 W/m² | - |
| 1777869754 | 8.89° C | 55% | 1013.6 hPa | 0 mm | - | 0 W/m² | - |
| 1777869451 | 8.89° C | 55% | 1013.9 hPa | 0 mm | - | 0 W/m² | - |
| 1777869148 | 8.89° C | 55% | 1013.7 hPa | 0 mm | - | 0 W/m² | - |
| 1777868846 | 8.89° C | 55% | 1013.6 hPa | 0 mm | - | 0 W/m² | - |
| 1777868542 | 8.89° C | 55% | 1013.6 hPa | 0 mm | - | 0 W/m² | - |
| 1777868238 | 8.33° C | 55% | 1013.4 hPa | 0 mm | - | 0 W/m² | - |
| 1777867934 | 8.33° C | 55% | 1013.6 hPa | 0 mm | - | 0 W/m² | - |
| 1777867631 | 8.33° C | 55% | 1013.3 hPa | 0 mm | - | 0 W/m² | - |
| 1777867328 | 8.33° C | 56% | 1013.3 hPa | 0 mm | - | 0 W/m² | - |
| 1777867024 | 7.78° C | 59% | 1013.2 hPa | 0 mm | - | 0 W/m² | - |
| 1777866722 | 8.33° C | 63% | 1013.4 hPa | 0 mm | - | 0 W/m² | - |
| 1777866419 | 8.33° C | 58% | 1013.3 hPa | 0 mm | - | 0 W/m² | - |
| 1777866116 | 8.33° C | 60% | 1013.4 hPa | 0 mm | - | 0 W/m² | - |
| 1777865813 | 8.33° C | 59% | 1013.4 hPa | 0 mm | - | 0 W/m² | - |
| 1777865511 | 8.33° C | 56% | 1013.5 hPa | 0 mm | - | 0 W/m² | - |
| 1777865207 | 8.33° C | 58% | 1013.3 hPa | 0 mm | - | 0 W/m² | - |
* Rain latest hour (hover to see other rain measurements)
** Current wind speed in m/s (hover to see current wind gust speed)